Location: Baia Mare
(47.6567°N, 23.5850°E)
Time: 20:22:34
(UTC+02:00)

ISS - Pass Details

Date: 26 February 2020
Orbit: 417 x 420 km, 51.6° (Epoch: 28 October)

Event Time Altitude Azimuth Distance (km) Brightness Sun altitude
Exits shadow 06:12:07 15° 247° (WSW) 1,241 -1.9 -11.1°
Maximum altitude 06:14:51 87° 339° (NNW) 432 -3.8 -10.6°
Drops below altitude 10° 06:18:16 10° 66° (ENE) 1,521 0.2 -10.0°
Sets 06:20:23 0° 67° (ENE) 2,389 1.4 -9.7°
